TimeCDT,TemperatureF,Dew PointF,Humidity,Sea Level PressureIn,VisibilityMPH,Wind Direction,Wind SpeedMPH,Gust SpeedMPH,PrecipitationIn,Events,Conditions,WindDirDegrees,DateUTC
12:49 AM,59.0,57.2,94,30.07,10.0,SW,5.8,-,0.01,,Overcast,230,2013-10-28 05:49:00
12:53 AM,59.0,57.0,93,30.06,10.0,SW,5.8,-,0.01,,Overcast,230,2013-10-28 05:53:00
1:10 AM,59.0,57.2,94,30.07,10.0,SW,4.6,-,N/A,,Overcast,230,2013-10-28 06:10:00
1:53 AM,57.9,55.9,93,30.07,8.0,SW,3.5,-,N/A,,Overcast,230,2013-10-28 06:53:00
2:53 AM,57.9,57.0,97,30.08,7.0,SW,4.6,-,N/A,,Overcast,220,2013-10-28 07:53:00
3:00 AM,57.2,55.4,94,30.08,7.0,SW,4.6,-,N/A,,Overcast,230,2013-10-28 08:00:00
3:18 AM,57.2,57.2,100,30.09,6.0,WSW,3.5,-,N/A,,Overcast,240,2013-10-28 08:18:00
3:28 AM,57.2,57.2,100,30.09,6.0,WSW,4.6,-,N/A,,Overcast,240,2013-10-28 08:28:00
3:53 AM,57.9,55.9,93,30.09,4.0,WSW,5.8,-,N/A,,Overcast,240,2013-10-28 08:53:00
4:19 AM,57.2,55.4,94,30.10,5.0,WSW,3.5,-,N/A,,Overcast,240,2013-10-28 09:19:00
4:53 AM,57.9,55.9,93,30.10,5.0,WSW,3.5,-,N/A,,Overcast,240,2013-10-28 09:53:00
5:39 AM,55.4,55.4,100,30.12,1.5,Calm,Calm,-,N/A,,Partly Cloudy,0,2013-10-28 10:39:00
5:46 AM,55.4,53.6,94,30.12,0.2,Calm,Calm,-,N/A,Fog,Fog,0,2013-10-28 10:46:00
5:53 AM,55.9,54.0,93,30.12,0.2,Calm,Calm,-,N/A,Fog,Fog,0,2013-10-28 10:53:00
6:04 AM,55.4,53.6,94,30.13,0.2,SW,3.5,-,N/A,Fog,Fog,220,2013-10-28 11:04:00
6:19 AM,53.6,53.6,100,30.14,0.5,SW,3.5,-,N/A,Fog,Fog,220,2013-10-28 11:19:00
6:30 AM,53.6,51.8,94,30.14,0.8,Calm,Calm,-,N/A,,Overcast,0,2013-10-28 11:30:00
6:37 AM,53.6,53.6,100,30.15,1.5,Calm,Calm,-,N/A,,Overcast,0,2013-10-28 11:37:00
6:53 AM,55.0,54.0,96,30.15,3.0,Calm,Calm,-,N/A,,Overcast,0,2013-10-28 11:53:00
7:05 AM,55.4,55.4,100,30.15,4.0,Calm,Calm,-,N/A,,Overcast,0,2013-10-28 12:05:00
7:36 AM,55.4,55.4,100,30.17,3.0,West,3.5,-,N/A,,Overcast,270,2013-10-28 12:36:00
7:53 AM,57.0,55.0,93,30.18,3.0,West,3.5,-,N/A,,Overcast,280,2013-10-28 12:53:00
8:46 AM,57.2,55.4,94,30.21,4.0,West,8.1,-,N/A,,Overcast,270,2013-10-28 13:46:00
8:53 AM,57.9,55.9,93,30.21,5.0,West,6.9,-,N/A,,Overcast,270,2013-10-28 13:53:00
9:19 AM,57.2,55.4,94,30.22,5.0,West,6.9,-,N/A,,Overcast,260,2013-10-28 14:19:00
9:53 AM,57.9,55.0,90,30.23,5.0,West,4.6,-,N/A,,Overcast,280,2013-10-28 14:53:00
10:53 AM,59.0,55.0,87,30.23,6.0,WSW,4.6,-,N/A,,Overcast,250,2013-10-28 15:53:00
11:53 AM,60.1,54.0,80,30.22,8.0,Calm,Calm,-,N/A,,Overcast,0,2013-10-28 16:53:00
12:19 PM,60.8,55.4,82,30.22,10.0,Calm,Calm,-,N/A,,Overcast,0,2013-10-28 17:19:00
12:53 PM,62.1,55.0,78,30.20,10.0,Calm,Calm,-,N/A,,Overcast,0,2013-10-28 17:53:00
1:06 PM,62.6,55.4,77,30.20,10.0,SSE,4.6,-,N/A,,Mostly Cloudy,160,2013-10-28 18:06:00
1:23 PM,62.6,55.4,77,30.20,10.0,Calm,Calm,-,N/A,,Partly Cloudy,0,2013-10-28 18:23:00
1:53 PM,64.9,55.0,70,30.19,10.0,Calm,Calm,-,N/A,,Partly Cloudy,0,2013-10-28 18:53:00
2:53 PM,69.1,55.0,61,30.17,10.0,East,4.6,-,N/A,,Mostly Cloudy,90,2013-10-28 19:53:00
3:53 PM,69.1,51.1,53,30.17,10.0,SSW,4.6,-,N/A,,Overcast,210,2013-10-28 20:53:00
4:53 PM,66.0,54.0,65,30.19,10.0,SE,3.5,-,N/A,,Mostly Cloudy,130,2013-10-28 21:53:00
5:53 PM,62.1,55.0,78,30.19,10.0,Calm,Calm,-,N/A,,Clear,0,2013-10-28 22:53:00
6:53 PM,55.9,53.1,90,30.21,10.0,Calm,Calm,-,N/A,,Clear,0,2013-10-28 23:53:00
7:53 PM,55.9,53.1,90,30.21,10.0,SE,3.5,-,N/A,,Clear,130,2013-10-29 00:53:00
8:53 PM,53.1,50.0,89,30.23,10.0,Calm,Calm,-,N/A,,Clear,0,2013-10-29 01:53:00
9:29 PM,50.0,48.2,94,30.23,1.8,Calm,Calm,-,N/A,,Clear,0,2013-10-29 02:29:00
9:36 PM,51.8,48.2,88,30.23,1.2,Calm,Calm,-,N/A,,Partly Cloudy,0,2013-10-29 02:36:00
9:40 PM,51.8,50.0,94,30.23,4.0,Calm,Calm,-,N/A,,Clear,0,2013-10-29 02:40:00
9:49 PM,51.8,48.2,88,30.24,1.5,Calm,Calm,-,N/A,,Partly Cloudy,0,2013-10-29 02:49:00
9:51 PM,51.8,48.2,88,30.24,0.8,Calm,Calm,-,N/A,,Mist,0,2013-10-29 02:51:00
9:53 PM,51.1,48.9,92,30.24,0.5,Calm,Calm,-,N/A,Fog,Fog,0,2013-10-29 02:53:00
10:03 PM,51.8,48.2,88,30.24,1.2,Calm,Calm,-,N/A,,Partly Cloudy,0,2013-10-29 03:03:00
10:06 PM,50.0,48.2,94,30.24,4.0,Calm,Calm,-,N/A,,Partly Cloudy,0,2013-10-29 03:06:00
10:18 PM,50.0,48.2,94,30.24,1.2,Calm,Calm,-,N/A,,Scattered Clouds,0,2013-10-29 03:18:00
10:20 PM,50.0,48.2,94,30.24,0.8,Calm,Calm,-,N/A,,Mist,0,2013-10-29 03:20:00
10:30 PM,50.0,48.2,94,30.23,0.2,Calm,Calm,-,N/A,Fog,Fog,0,2013-10-29 03:30:00
10:39 PM,50.0,48.2,94,30.23,0.5,Calm,Calm,-,N/A,Fog,Fog,0,2013-10-29 03:39:00
10:53 PM,48.0,46.9,96,30.23,0.5,Calm,Calm,-,N/A,Fog,Fog,0,2013-10-29 03:53:00
11:02 PM,48.2,46.4,93,30.24,1.5,Calm,Calm,-,N/A,,Scattered Clouds,0,2013-10-29 04:02:00
11:06 PM,48.2,46.4,93,30.24,3.0,Calm,Calm,-,N/A,,Partly Cloudy,0,2013-10-29 04:06:00
11:11 PM,50.0,48.2,94,30.24,1.8,Calm,Calm,-,N/A,,Partly Cloudy,0,2013-10-29 04:11:00
11:14 PM,48.2,48.2,100,30.24,0.8,Calm,Calm,-,N/A,,Mist,0,2013-10-29 04:14:00
11:25 PM,48.2,46.4,93,30.24,0.2,Calm,Calm,-,N/A,Fog,Fog,0,2013-10-29 04:25:00
11:32 PM,48.2,46.4,93,30.24,0.5,Calm,Calm,-,N/A,Fog,Fog,0,2013-10-29 04:32:00
11:39 PM,48.2,46.4,93,30.24,0.2,Calm,Calm,-,N/A,Fog,Fog,0,2013-10-29 04:39:00
11:53 PM,48.0,46.9,96,30.25,0.2,Calm,Calm,-,N/A,Fog,Fog,0,2013-10-29 04:53:00